Beaufort MCAS, SC

7:21 AM EDT on April 27, 2017 (GMT -0400)
Beaufort Marine Corps Air Station

Weather History for KNBC - September, 2013

Change the Weather History Date:

Saturday, September 28, 2013

  Actual Average Record
Temperature  
Mean Temperature 70 °F -  
Max Temperature 80 °F 82 °F 95 °F (1939)
Min Temperature 60 °F 65 °F 50 °F (1962)
Cooling Degree Days 4    
Growing Degree Days 20 (Base 50)    
Moisture  
Dew Point 58 °F    
Average Humidity 70    
Maximum Humidity 84    
Minimum Humidity 52    
Precipitation  
Precipitation 0.00 in - - ()
Sea Level Pressure  
Sea Level Pressure 30.11 in    
Wind  
Wind Speed 10 mph (NE)    
Max Wind Speed 14 mph    
Max Gust Speed 17 mph    
Visibility 10 miles    
Events      
Averages and records for this station are not official NWS values.
T = Trace of Precipitation, MM = Missing Value Source: NWS Daily Summary

Daily Weather History Graph

Daily Weather History Graph

Search for Another Location

Airport or City:

Trip Planner

Search our weather history database for the weather conditions in past years. The results will help you decide how hot, cold, wet, or windy it might be!

Date:

Astronomy

Sep. 28, 2013 Rise Set
Actual Time 7:15 AM EDT 7:11 PM EDT
Civil Twilight 6:50 AM EDT 7:35 PM EDT
Nautical Twilight 6:22 AM EDT 8:04 PM EDT
Astronomical Twilight 5:53 AM EDT 8:32 PM EDT
Moon 1:18 AM EDT (9/28) 3:13 PM EDT (9/28)
Length of Visible Light 12h 45m
Length of Day
11h 56m
Last Quarter, 36% of the Moon is Illuminated
Sep 28
Last Quarter
Oct 4
New
Oct 11
First Quarter
Oct 18
Full
Oct 26
Last Quarter

Hourly Weather History & Observations

Time (EDT) Temp. Dew Point Humidity Pressure Visibility Wind Dir Wind Speed Gust Speed Precip Events Conditions
12:56 AM 64.9 °F 55.9 °F 73% 30.10 in 10.0 mi NE 8.1 mph - N/A   Clear
1:56 AM 64.0 °F 55.9 °F 75% 30.10 in 10.0 mi ENE 6.9 mph - N/A   Clear
2:56 AM 63.0 °F 55.0 °F 75% 30.09 in 10.0 mi NE 11.5 mph - N/A   Clear
3:56 AM 62.1 °F 55.0 °F 78% 30.09 in 10.0 mi NE 11.5 mph - N/A   Clear
4:56 AM 62.1 °F 55.0 °F 78% 30.09 in 10.0 mi NE 12.7 mph - N/A   Clear
5:56 AM 60.1 °F 55.0 °F 83% 30.11 in 10.0 mi NE 10.4 mph - N/A   Clear
6:56 AM 60.1 °F 55.0 °F 83% 30.11 in 10.0 mi NNE 10.4 mph - N/A   Clear
7:56 AM 61.0 °F 55.0 °F 81% 30.13 in 10.0 mi NNE 9.2 mph - N/A   Clear
8:56 AM 64.0 °F 55.9 °F 75% 30.14 in 10.0 mi NNE 10.4 mph - N/A   Clear
9:56 AM 69.1 °F 57.0 °F 65% 30.15 in 10.0 mi NE 11.5 mph - N/A   Scattered Clouds
10:56 AM 72.0 °F 57.9 °F 61% 30.15 in 10.0 mi NE 10.4 mph - N/A   Clear
11:56 AM 75.0 °F 59.0 °F 57% 30.16 in 10.0 mi NE 9.2 mph - N/A   Clear
12:56 PM 77.0 °F 59.0 °F 54% 30.14 in 10.0 mi NE 11.5 mph - N/A   Scattered Clouds
1:56 PM 78.1 °F 60.1 °F 54% 30.12 in 10.0 mi NNE 12.7 mph 17.3 mph N/A   Partly Cloudy
2:56 PM 78.1 °F 60.1 °F 54% 30.10 in 10.0 mi NNE 13.8 mph - N/A   Overcast
3:56 PM 79.0 °F 60.1 °F 52% 30.09 in 10.0 mi NE 11.5 mph - N/A   Overcast
4:56 PM 75.9 °F 60.1 °F 58% 30.09 in 10.0 mi NNE 11.5 mph - N/A   Mostly Cloudy
5:56 PM 75.0 °F 61.0 °F 62% 30.10 in 10.0 mi NE 9.2 mph - N/A   Overcast
6:56 PM 73.0 °F 61.0 °F 66% 30.11 in 10.0 mi NE 9.2 mph - N/A   Overcast
7:56 PM 72.0 °F 62.1 °F 71% 30.11 in 10.0 mi NNE 5.8 mph - N/A   Overcast
8:56 PM 70.0 °F 61.0 °F 73% 30.11 in 10.0 mi NE 8.1 mph - N/A   Overcast
9:56 PM 68.0 °F 61.0 °F 78% 30.11 in 10.0 mi NE 8.1 mph - N/A   Partly Cloudy
10:56 PM 68.0 °F 61.0 °F 78% 30.11 in 10.0 mi NE 5.8 mph - N/A   Scattered Clouds
11:56 PM 64.9 °F 60.1 °F 84% 30.11 in 10.0 mi NNE 5.8 mph - N/A   Partly Cloudy